TITAN 3C TRANSTAGE DEB, 1883

Orbit data source: Space-Track

TITAN 3C TRANSTAGE DEB, 1883 is space debris in LEO originally from a launch on Fri, 15 Oct 1965 UTC launched from the Air Force Eastern Test Range (AFETR). Debris objects in space refer to the collection of defunct objects orbiting the Earth. Examples of debris include non-operational satellites, rocket bodies, and fragments generated from explosions, collisions, or faulty payload assembly.

Loading next visibility...
Identifier
1883, 1965-082EY
Orbit
LEO
Last TLE update
23 hours ago
Origin
Manufacturer
Unknown
Mission
Spacecraft
Bus & Motor
Unknown
Mass
Unknown
Launch date (UTC)
1965-10-15 (60 years ago)
Launch vehicle
Unknown
Launch site
Air Force Eastern Test Range (AFETR)
Object type
Payload
Rocket body
Debris
Shape & HBR
Unknown
Radar Cross Section
Small (<0.1 m²)

Expand to show TLE details & history

TLE from 23 hours ago
0 TITAN 3C TRANSTAGE DEB
1 01883U 65082EY  25138.51103456  .00007201  00000-0  34240-3 0  9991
2 01883  32.0916  74.5236 0014594 134.5620 225.6234 15.17878836205177
Epoch: 2025-05-18T12:15Z
TLE epoch observation values (Epoch: 2025-05-18T12:15:53.385Z)
Latitude
-0.00003°
Longitude
14.11415°
Altitude
517.903 km
Speed
7.603 km/s
True Right ascension
04h 58m 05s
True Declination
0° 00' 00"
Sunlit
Object was in daylight at epoch
Visualization orbit readout
Latitude
-16.0119°
Longitude
-145.00554°
Altitude
510.312 km
Speed
7.612 km/s
Apparent Right ascension
15h 25m 07s
Apparent Declination
-62° 31' 27"
Sunlit
Object is in full shadow
Visualization observer readout
Local Sidereal Time
20:06:08
Azimuth
209.09° SW
Elevation
-26.726°
Doppler factor
1
Orbital elements
Apogee altitude
526.005 km
Perigee altitude
505.883 km
Semi-major axis
6,894.081 km
Eccentricity
0.00146
Inclination
32.0916°
RAAN
74.5236°
Arg. of periapsis
134.562°
True anomaly
Unknown
Mean anomaly
225.6234°
Eccentric anomaly
Unknown
Mean motion
3.79165 °/min
Orbital period
94.95 mins
BSTAR
0.0003424
Loading maneuver chart data...
Loading SW <> Apogee altitude chart data...

TITAN 3C TRANSTAGE DEB Visibility forecast

Observer location: undefined°, undefined°

Span
Click to sort rows by Start time (UTC) header in descending order
Start Az.
Max El. time (UTC)
Max El. Az.
Max El.
End time (UTC)
End Az.
4 mins2025-05-19 23:14:05.139Z195.867° SSW2025-05-19 23:16:05.139Z164.872° S14.266°2025-05-19 23:18:05.139Z132.161° SE
5 mins2025-05-20 00:54:05.139Z216.735° SW2025-05-20 00:56:05.139Z173.806° S22.637°2025-05-20 00:59:05.139Z121.291° SE
4 mins2025-05-20 02:34:05.139Z225.64° WSW2025-05-20 02:36:05.139Z184.427° SSW20.114°2025-05-20 02:38:05.139Z147.511° SSE
|